www.pogodaiklimat.ru

ПОГОДА в Пало Альто, CA

  • Прогноз погоды в Пало Альто
  • Монитор погоды в Пало Альто
  • Климат в Пало Альто

АРХИВ ПОГОДЫ в Пало Альто

Время (UTC), дата Ветер
(напр.,м/с)
 
Видим.   Явления Облачность Т
(С)
Тd
(С)
f
(%)
Тe
(С)
Тes
(С)
Комфортность

P
(гПа)

Po
(гПа)
Тmin
(С)
Tmax
(С)
R
(мм)
SD
(см)
14:47 20.06 СВ  16 км    5/5 900 м  +17.0  +13.0  77  +17  +18      1012.5         
15:47 20.06 СВ  16 км    2/2 900 м  +19.0  +13.0  68  +20  +25      1012.5         
17:47 20.06 С  16 км    ясно  +21.0  +14.0  64  +24  +36  комфорт    1011.8         
18:47 20.06 С  16 км    ясно  +22.0  +14.0  60  +25  +39  комфорт    1011.8         
21:47 20.06 СЗ  16 км    ясно  +22.0  +13.0  57  +25  +28  комфорт    1010.8         
22:47 20.06 С  16 км    ясно  +22.0  +14.0  60  +25  +28  комфорт    1010.5         
23:47 20.06 С  16 км    ясно  +21.0  +13.0  60  +23  +26  комфорт    1010.5         
00:47 21.06 С  16 км    ясно  +20.0  +14.0  68  +22  +25  комфорт    1010.5         
12:47 21.06 ЮВ  16 км    8/8 450 м  +14.0  +11.0  82  +13  +13      1012.2         
15:47 21.06 СВ  16 км    5/5 600 м  +17.0  +12.0  72  +17  +20      1013.2         
16:47 21.06 С  16 км    ясно  +18.0  +13.0  73  +18  +28      1013.2         
18:47 21.06 С  16 км    ясно  +21.0  +14.0  64  +24  +31  комфорт    1012.9         
20:47 21.06 С  7
{10} 
16 км    ясно  +22.0  +14.0  60  +25  +29  комфорт    1012.5         
21:47 21.06 С  16 км    ясно  +22.0  +16.0  69  +26  +29  душно    1011.5         
22:47 21.06 С  16 км    ясно  +22.0  +14.0  60  +25  +27  комфорт    1011.2         
12:47 23.06   16 км    ясно  +16.0  +12.0  77  +16  +16      1013.9         
13:47 23.06 нст  16 км    ясно  +18.0  +14.0  77  +18  +19      1014.2         
15:47 23.06 С  16 км    ясно  +21.0  +16.0  73  +25  +31  комфорт    1014.5         
16:47 23.06 С  16 км    ясно  +23.0  +15.0  61  +27  +38  душно    1014.5         
17:47 23.06 СЗ  16 км    ясно  +25.0  +17.0  61  +29  +40  душно    1014.2         
18:47 23.06 С  16 км    ясно  +27.0  +13.0  42  +29  +40  жарко    1014.2         
19:47 23.06 С  16 км    ясно  +26.0  +17.0  58  +30  +38  душно    1013.5         
20:47 23.06 СЗ  16 км    ясно  +26.0  +16.0  54  +29  +32  душно    1013.2         
21:47 23.06 СЗ  16 км    ясно  +25.0  +16.0  57  +28  +30  жарко    1012.9         
22:47 23.06 С  16 км    ясно  +24.0  +16.0  61  +27  +31  жарко    1012.5         
23:47 23.06 СЗ  16 км    ясно  +24.0  +13.0  50  +26  +28  жарко    1012.2         
00:47 24.06 СЗ  16 км    ясно  +23.0  +14.0  57  +26  +28  жарко    1012.5         
01:47 24.06 С  16 км    ясно  +21.0  +15.0  69  +24  +24  комфорт    1012.9         
02:47 24.06 СЗ  16 км    ясно  +19.0  +14.0  73  +20  +20      1012.9         
12:47 24.06   13 км    10/10 270 м  +19.0  +14.0  73  +20  +20      1011.8         
13:47 24.06   13 км    10/10 270 м  +17.0  +14.0  82  +17  +17      1012.2         
15:05 24.06 нст  16 км    8/5 270 м
[средняя] 
+17.0  +14.0  82  +17  +19      1012.2         
16:47 24.06 С  16 км    8/0 3600 м
[средняя] 
+19.0  +16.0  83  +20  +24      1011.8         
18:47 24.06 С  16 км    8/0 3600 м
[средняя] 
+23.0  +14.0  57  +26  +31  жарко    1011.5         
19:47 24.06 С  16 км    8/0 3600 м
[средняя] 
+24.0  +16.0  61  +27  +32  жарко    1011.2         
20:47 24.06 С  16 км    8/0 3600 м
[средняя] 
+24.0  +17.0  65  +28  +31  душно    1010.5         
21:47 24.06 С  16 км    8/0 3600 м
[средняя] 
+23.0  +16.0  65  +27  +29  душно    1010.1         
22:47 24.06 С  16 км    8/0 3600 м
[средняя] 
+23.0  +16.0  65  +27  +28  душно    1009.8         
23:47 24.06 С  16 км    8/0 3600 м
[средняя] 
+23.0  +17.0  69  +28  +29  душно    1009.5         
00:47 25.06 С  16 км    8/0 3600 м
[средняя] 
+22.0  +16.0  69  +26  +26  душно    1009.5         
01:47 25.06 С  16 км    8/0 6000 м
[средняя] 
+19.0  +14.0  73  +19  +20      1009.8         
02:47 25.06 С  16 км    8/0 6000 м
[средняя] 
+18.0  +14.0  77  +18  +18      1009.8         
12:47 25.06   10 км    ясно  +15.0  +12.0  82  +15  +15      1010.1         
13:47 25.06   10 км    ясно  +17.0  +14.0  82  +17  +18      1010.8         
14:47 25.06   16 км    ясно  +18.0  +13.0  73  +18  +23      1011.2         
16:47 25.06 С  16 км    ясно  +20.0  +14.0  68  +22  +31  комфорт    1011.2         
17:47 25.06 С  16 км    ясно  +21.0  +13.0  60  +24  +35  комфорт    1011.2         
19:53 25.06 СЗ  16 км    8/0 6000 м
[средняя] 
+23.0  +13.0  53  +26  +28  жарко    1010.8         

 

Местоположение метеостанции Palo Alto Airport: широта 37.4700 долгота -122.1200 высота над уровнем моря 2 м.

В архиве по умолчанию представлена погода в Пало Альто за последние 1-2 суток. Обновление информации о фактической погоде в базе происходит ежечасно! Архивные данные за месяц целиком и за предыдущие месяцы Вы можете получить, выбрав интересующий диапазон дат из раскрывающегося списка и нажав кнопку "Ввод!".

Внимание! Архив погоды МЕТАР в базе сайта хранится не более 60 дней. Нет смысла пытаться выбрать более раннюю дату.

Внимание! Время в таблицах - всемирное. Для получения местного времени необходимо прибавить поправку, которая в Пало Альто равна -8 ч.

Ветер - указаны скорость ветра в м/с и направление, откуда дует ветер: С - северный, СВ - северо-восточный, В - восточный, ЮВ - юго-восточный, Ю - южный, ЮЗ - юго-западный, З - западный, СЗ - северо-западный.
Видимость - горизонтальная дальность видимости в метрах или километрах. При видимости от 1 до 10 км при отсутствии осадков обычно наблюдается дымка, при ухудшении видимости до 1 км и менее - туман. В сухую погоду видимость может ухудшаться дымом, пылью или мглою.
Атмосферные явления - указаны явления, наблюдавшиеся в указанный момент времени.
Облачность - указаны через наклонную черту верхняя и нижняя облачность в баллах и высота нижней границы облаков в метрах. Внимание: облачность, как и прочие метеорологические величины в США измеряются автоматическими метеостанциями. Указанные значения в баллах носят условный характер и показывают процент времени, в течение которого, в среднем, лазерный луч высотомера отражался от облаков обратно.
T - Температура воздуха - температура, измеренная на высоте 2 м над землей.
Td - Температура точки росы - температура, при понижении до которой содержащийся в воздухе водяной пар достигнет насыщения.
f - Относительная влажность воздуха - влажноcть воздуха, измеренная на высоте 2 м над землей.
Te - Эффективная температура - температура, которую ощущает одетый по сезону человек в тени. Характеристика душности погоды. При расчете учитывается влияние влажности воздуха и скорости ветра на теплоощущения человека.
Tes - Эффективная температура на солнце - температура, которую ощущает человек, с поправкой на солнечный нагрев. Характеристика знойности погоды. Зависит от высоты солнца над горизонтом, облачности и скорости ветра. Ночью, в пасмурную погоду, а также при ветре 12 м/с и более поправка равна нулю.
P - Атмосферное давление - приведенное к уровню моря атмосферное давление.
Po - Атмосферное давление - измеренное на уровне метеостанции атмосферное давление.
Tmin - Минимальная температура - минимум температуры воздуха на высоте 2 м над землей.
Tmax - Максимальная температура - максимум температуры воздуха на высоте 2 м над землей.
R - Количество осадков - Количество выпавших осадков за 3 или 6 часов, мм.
SD - Снежный покров - Высота снежного покрова, см.